ORBCOMM FM114 [+] (41179 NORAD) Tracking and Keplerian Element Data

This shows tracking and keplerian element data for the satellite.

Feedback or suggestion? Click here.




ElementValue
Catalog41179
NameORBCOMM FM114 [+]
Epoch Orbit17626
Epoch Day106.92914806
Epoch Year2019
RAAN84.6933
Inclination47.003
Eccentricity0.0001515
Argument of Perigee144.2893
Mean Anonmoly215.8093
Mean Motion14.54727358
Decay Rate-7.2E-07
L11 41179U 15081A 19106.92914806 -.00000072 00000-0 21602-4 0 9998
L22 41179 47.0030 84.6933 0001515 144.2893 215.8093 14.54727358176260

Live tracking and technical data element details for ORBCOMM FM114 [+] (NORAD 41179). ORBCOMM FM114 [+] can be tracked NOW for your location showing map with azimuth and elevation plus other details from your city location.

Track the satellite on the map from your city or location and see movement details for azimuth, elevation, latitude, longitude, range, height, and movement on the map or in text.







IsCatalogInMostPopularTable: catalog: 41179, numindb: 212
Update: records affected: 1



GetName: 41179 ORBCOMM FM114 [+]

Hit Count: updated at: Sat, 20 Apr 2019 00:12:49 GMT